This is the latest recevied weather packets stored in our database for station/object SR8WXB-1. If no packets are shown the sender has not sent any weather packets the latest 1 day(s).
| Time | Temp. | Humidity | Pressure | Rain* | Wind** | Luminosity | Snow |
|---|---|---|---|---|---|---|---|
| 1777987291 | 22.78° C | 100% | 940.1 hPa | - | 11.62 m/s, 244° | - | - |
| 1777987048 | 22.78° C | 100% | 940.1 hPa | - | 11.62 m/s, 247° | - | - |
| 1777986808 | 22.78° C | 100% | 940.2 hPa | - | 12.96 m/s, 243° | - | - |
| 1777986568 | 22.78° C | 100% | 940.2 hPa | - | 12.96 m/s, 245° | - | - |
| 1777986329 | 22.78° C | 100% | 940.2 hPa | - | 12.07 m/s, 242° | - | - |
| 1777986088 | 22.78° C | 100% | 940.3 hPa | - | 10.73 m/s, 244° | - | - |
| 1777985846 | 22.78° C | 100% | 940.3 hPa | - | 12.52 m/s, 243° | - | - |
| 1777985605 | 22.78° C | 100% | 940.3 hPa | - | 11.62 m/s, 243° | - | - |
| 1777985365 | 22.78° C | 100% | 940.4 hPa | - | 11.18 m/s, 245° | - | - |
| 1777985125 | 22.78° C | 100% | 940.5 hPa | - | 10.73 m/s, 245° | - | - |
| 1777984882 | 22.78° C | 100% | 940.4 hPa | - | 12.07 m/s, 245° | - | - |
| 1777984639 | 23.33° C | 100% | 940.5 hPa | - | 10.73 m/s, 243° | - | - |
| 1777984399 | 22.78° C | 100% | 940.5 hPa | - | 10.73 m/s, 246° | - | - |
| 1777984159 | 22.78° C | 100% | 940.5 hPa | - | 10.73 m/s, 247° | - | - |
| 1777983919 | 22.78° C | 100% | 940.6 hPa | - | 12.96 m/s, 247° | - | - |
| 1777983679 | 22.78° C | 100% | 940.6 hPa | - | 12.52 m/s, 243° | - | - |
| 1777983436 | 22.78° C | 100% | 940.7 hPa | - | 12.07 m/s, 248° | - | - |
| 1777983197 | 22.78° C | 100% | 940.7 hPa | - | 12.52 m/s, 247° | - | - |
| 1777982957 | 22.22° C | 100% | 940.7 hPa | - | 11.18 m/s, 242° | - | - |
| 1777982717 | 22.22° C | 100% | 940.8 hPa | - | 12.07 m/s, 243° | - | - |
| 1777982477 | 22.22° C | 100% | 940.8 hPa | - | 10.73 m/s, 242° | - | - |
| 1777982234 | 22.78° C | 100% | 940.8 hPa | - | 12.96 m/s, 248° | - | - |
| 1777981994 | 22.78° C | 100% | 940.8 hPa | - | 8.94 m/s, 243° | - | - |
| 1777981754 | 22.78° C | 100% | 940.9 hPa | - | 9.83 m/s, 243° | - | - |
| 1777981514 | 22.22° C | 100% | 940.9 hPa | - | 9.39 m/s, 243° | - | - |
* Rain since midnight (hover to see other rain measurements)
** Current wind speed in m/s (hover to see current wind gust speed)